STARLINK-1450

decayed
NORAD ID: 45667 Int'l Des: 2020-035 Owner: SPXS Country: US Constellation: starlink
LEOCIRCULAR

关于 STARLINK-1450

正在加载描述...

高度历史

Altitude vs Time

uPlot chart will show altitude changes over time

两行轨道根数

1 45667U 20035L 24229.93544689 .06022703 11534+0 64898-2 0 9995
2 45667 53.0376 37.8283 0012722 289.3156 209.5650 16.14963823233427
Epoch: Aug 16, 2024 • Age: 9492 hours

当前状态

Position data unavailable
发射日期 Jun 4, 2020
运行时间 5.2 years
衰减日期 Aug 17, 2024
类型 internet

技术详情

分类 Payload
质量 260.00 kg
干质量 248.00 kg
总质量 260.00 kg
长度 0.20 m
直径 2.80 m
跨度 9.00 m
形状 Box + pan
制造商 SPXS
平台类型 Starlink
阶段状态 Unknown Transfer Status
所有者/国家 SPXS/US

大型星座

Loading constellations...